Weather History for Holland, MI

Change the Weather History Date:

Sunday, December 15, 2013

  Actual Average Record
Temperature  
Mean Temperature 23 °F 31 °F  
Max Temperature 28 °F 36 °F 61 °F (1971)
Min Temperature 18 °F 26 °F 1 °F (1968)
Degree Days  
Heating Degree Days 42 34  
Month to date heating degree days 567 474  
Since 1 July heating degree days 1803 1697  
Cooling Degree Days 0 0  
Month to date cooling degree days 0 0  
Year to date cooling degree days 813 693  
Moisture  
Dew Point 13 °F    
Average Humidity 73    
Maximum Humidity 84    
Minimum Humidity 62    
Precipitation  
Precipitation 0.01 in 0.06 in 1.77 in (1971)
Month to date precipitation 0.54 1.34  
Year to date precipitation 39.05 35.50  
Sea Level Pressure  
Sea Level Pressure 29.94 in    
Wind  
Wind Speed 11 mph (WNW)    
Max Wind Speed 21 mph    
Max Gust Speed 31 mph    
Visibility 7 miles    
Events Snow    
T = Trace of Precipitation, MM = Missing Value Source: NWS Daily Summary

Daily Weather History Graph

Daily Weather History Graph

Search for Another Location

Airport:

Trip Planner

Search our weather history database for the weather conditions in past years. The results will help you decide how hot, cold, wet, or windy it might be!

Date:

Astronomy

Dec. 15, 2013 Rise Set
Actual Time 8:08 AM EST 5:11 PM EST
Civil Twilight 7:35 AM EST 5:43 PM EST
Nautical Twilight 7:00 AM EST 6:19 PM EST
Astronomical Twilight 6:25 AM EST 6:53 PM EST
Moon 4:16 PM EST (12/15) 6:22 AM EST (12/15)
Length of Visible Light 10h 07m
Length of Day
9h 03m
Waxing Gibbous, 97% of the Moon is Illuminated
Dec 15
Waxing Gibbous
Dec 17
Full
Dec 25
Last Quarter
Jan 1
New
Jan 7
First Quarter

Hourly Weather History & Observations

Time (EST) Temp. Windchill Dew Point Humidity Pressure Visibility Wind Dir Wind Speed Gust Speed Precip Events Conditions
12:53 AM 21.0 °F - 16.0 °F 81% 29.92 in 10.0 mi Calm Calm - N/A   Overcast
1:53 AM 21.0 °F 16.2 °F 16.0 °F 81% 29.90 in 10.0 mi East 3.5 mph - N/A   Overcast
2:53 AM 21.0 °F 16.2 °F 16.0 °F 81% 29.89 in 8.0 mi ESE 3.5 mph - 0.00 in Snow Light Snow
3:38 AM 21.0 °F 13.4 °F 17.1 °F 85% 29.85 in 3.0 mi South 5.8 mph - 0.01 in Snow Light Snow
3:49 AM 21.2 °F 13.6 °F 17.6 °F 86% 29.85 in 5.0 mi South 5.8 mph - 0.01 in Snow Light Snow
3:53 AM 21.0 °F 14.6 °F 17.1 °F 85% 29.89 in 5.0 mi South 4.6 mph - 0.01 in Snow Light Snow
4:53 AM 21.0 °F 16.2 °F 18.0 °F 88% 29.87 in 4.0 mi SSE 3.5 mph - 0.00 in Snow Light Snow
5:53 AM 27.0 °F 15.6 °F 21.9 °F 81% 29.86 in 6.0 mi West 13.8 mph 24.2 mph 0.00 in Snow Light Snow
6:53 AM 26.1 °F 15.6 °F 21.0 °F 81% 29.86 in 4.0 mi West 11.5 mph - 0.00 in Snow Light Snow
7:53 AM 24.1 °F 11.0 °F 19.0 °F 81% 29.88 in 6.0 mi West 16.1 mph 24.2 mph 0.00 in Snow Light Snow
8:53 AM 21.9 °F 8.7 °F 14.0 °F 72% 29.91 in 8.0 mi West 15.0 mph 26.5 mph 0.00 in   Overcast
9:32 AM 21.9 °F 9.8 °F 15.1 °F 75% 29.88 in 1.8 mi WNW 12.7 mph 21.9 mph 0.00 in Snow Light Snow
9:42 AM 21.9 °F 11.7 °F 14.0 °F 72% 29.88 in 3.0 mi WNW 9.2 mph 20.7 mph 0.00 in Snow Light Snow
9:53 AM 21.0 °F 8.1 °F 14.0 °F 74% 29.91 in 3.0 mi West 13.8 mph 20.7 mph 0.00 in Snow Light Snow
10:53 AM 21.0 °F 8.6 °F 12.9 °F 71% 29.94 in 10.0 mi WNW 12.7 mph 20.7 mph 0.00 in   Overcast
11:01 AM 21.0 °F 6.6 °F 12.9 °F 71% 29.90 in 4.0 mi WNW 17.3 mph 27.6 mph 0.00 in Snow Light Snow
11:10 AM 19.9 °F 5.2 °F 14.0 °F 78% 29.90 in 2.0 mi WNW 17.3 mph 29.9 mph 0.00 in Snow Light Snow
11:26 AM 19.9 °F 6.2 °F 12.9 °F 74% 29.90 in 6.0 mi West 15.0 mph 26.5 mph 0.00 in Snow Light Snow
11:53 AM 19.9 °F 5.7 °F 14.0 °F 78% 29.93 in 2.5 mi WNW 16.1 mph 24.2 mph 0.00 in Snow Light Snow
12:35 PM 19.9 °F 5.2 °F 12.0 °F 71% 29.89 in 3.0 mi West 17.3 mph 26.5 mph 0.00 in Snow Light Snow
12:53 PM 19.9 °F 4.3 °F 12.0 °F 71% 29.92 in 7.0 mi West 19.6 mph 26.5 mph 0.00 in Snow Light Snow
1:53 PM 19.9 °F 6.2 °F 12.0 °F 71% 29.93 in 7.0 mi WNW 15.0 mph 26.5 mph 0.00 in Snow Light Snow
2:53 PM 19.9 °F 5.7 °F 10.9 °F 68% 29.94 in 10.0 mi WNW 16.1 mph 29.9 mph 0.00 in   Overcast
3:53 PM 19.9 °F 5.7 °F 10.0 °F 65% 29.96 in 10.0 mi WNW 16.1 mph 23.0 mph N/A   Overcast
4:53 PM 19.9 °F 6.2 °F 10.0 °F 65% 29.98 in 10.0 mi WNW 15.0 mph 24.2 mph N/A   Overcast
5:53 PM 19.0 °F 6.1 °F 9.0 °F 65% 29.99 in 10.0 mi WNW 12.7 mph 20.7 mph N/A   Overcast
6:48 PM 19.4 °F 7.9 °F 8.6 °F 63% 29.97 in 10.0 mi WNW 10.4 mph - N/A   Overcast
6:53 PM 19.0 °F 4.5 °F 8.1 °F 62% 30.01 in 10.0 mi West 16.1 mph 23.0 mph N/A   Overcast
7:00 PM 19.0 °F 6.1 °F 9.0 °F 65% 29.98 in 10.0 mi WNW 12.7 mph 23.0 mph N/A   Overcast
7:53 PM 19.0 °F 7.5 °F 8.1 °F 62% 30.03 in 10.0 mi WNW 10.4 mph 18.4 mph N/A   Overcast
8:53 PM 19.0 °F 6.8 °F 8.1 °F 62% 30.05 in 10.0 mi WNW 11.5 mph - N/A   Overcast
9:44 PM 19.0 °F 6.1 °F 8.1 °F 62% 30.02 in 10.0 mi WNW 12.7 mph 23.0 mph N/A   Overcast
9:51 PM 19.4 °F 7.2 °F 8.6 °F 63% 30.02 in 10.0 mi WNW 11.5 mph 18.4 mph N/A   Overcast
9:53 PM 19.0 °F 7.5 °F 8.1 °F 62% 30.06 in 10.0 mi WNW 10.4 mph - N/A   Overcast
10:53 PM 18.0 °F 6.9 °F 8.1 °F 65% 30.07 in 10.0 mi WNW 9.2 mph - 0.00 in   Overcast
11:27 PM 18.0 °F 6.9 °F 7.0 °F 62% 30.04 in 10.0 mi WNW 9.2 mph - 0.00 in   Overcast
11:50 PM 17.6 °F 7.3 °F 8.6 °F 68% 30.04 in 10.0 mi NW 8.1 mph - 0.00 in   Overcast
11:53 PM 18.0 °F 7.7 °F 8.1 °F 65% 30.08 in 10.0 mi NW 8.1 mph - 0.00 in   Overcast